Overview Statistics Trail Chart Weather Telemetry Raw packets
 

This is the latest recevied weather packets stored in our database for station/object K8RRT. If no packets are shown the sender has not sent any weather packets the latest 10 day(s).

<< 80 81 82 83 84 85 86 >>
Time Temp. Humidity Pressure Rain* Wind** Luminosity Snow
1788028341 30° C 65% 1016.9 hPa 0 mm - 482 W/m² -
1788028036 29.44° C 65% 1017 hPa 0 mm - 626 W/m² -
1788027726 30.56° C 64% 1017.2 hPa 0 mm - 751 W/m² -
1788027426 29.44° C 65% 1017.3 hPa 0 mm - 734 W/m² -
1788027121 30° C 67% 1017.2 hPa 0 mm - 668 W/m² -
1788026820 29.44° C 64% 1017 hPa 0 mm - 744 W/m² -
1788026516 29.44° C 68% 1017.2 hPa 0 mm - 727 W/m² -
1788026215 29.44° C 66% 1017.2 hPa 0 mm - 149 W/m² -
1788025915 29.44° C 68% 1017.4 hPa 0 mm - 734 W/m² -
1788025609 29.44° C 68% 1017.6 hPa 0 mm - 736 W/m² -
1788025309 29.44° C 65% 1017.5 hPa 0 mm - 718 W/m² -
1788025009 29.44° C 64% 1017.5 hPa 0 mm - 714 W/m² -
1788024704 30° C 69% 1017.6 hPa 0 mm - 704 W/m² -
1788024399 30° C 65% 1017.5 hPa 0 mm - 701 W/m² -
1788024094 30° C 69% 1017.5 hPa 0 mm - 725 W/m² -
1788023790 28.89° C 67% 1017.5 hPa 0 mm - 724 W/m² -
1788023485 28.89° C 67% 1017.5 hPa 0 mm - 736 W/m² -
1788023181 28.89° C 67% 1017.3 hPa 0 mm - 702 W/m² -
1788022880 29.44° C 65% 1017.6 hPa 0 mm - 692 W/m² -
1788022577 28.89° C 67% 1017.5 hPa 0 mm - 726 W/m² -
1788022273 28.89° C 67% 1017.5 hPa 0 mm - 751 W/m² -
1788021971 28.89° C 67% 1017.7 hPa 0 mm - 757 W/m² -
1788021666 28.89° C 70% 1017.7 hPa 0 mm - 742 W/m² -
1788021363 28.33° C 71% 1017.7 hPa 0 mm - 731 W/m² -
1788021059 27.78° C 71% 1017.6 hPa 0 mm - 737 W/m² -

* Rain latest hour (hover to see other rain measurements)
** Current wind speed in m/s (hover to see current wind gust speed)